Location: Larrial
(48.2758°N, 4.5331°W)
Time: 23:11:29
(UTC+00:00)

STARLINK-1203 - Pass Details

Date: 09 April 2020
Orbit: 559 x 560 km, 53.0° (Epoch: 24 May)

Event Time Altitude Azimuth Distance (km) Brightness Sun altitude
Rises 20:48:55 0° 296° (WNW) 2,750 8.9 -17.2°
Reaches altitude 10° 20:51:10 10° 295° (WNW) 1,852 7.6 -17.5°
Maximum altitude 20:55:23 76° 210° (SSW) 582 3.6 -18.1°
Enters shadow 20:56:39 43° 134° (SE) 789 3.9 -18.3°
